TimeMDT,TemperatureF,Dew PointF,Humidity,Sea Level PressureIn,VisibilityMPH,Wind Direction,Wind SpeedMPH,Gust SpeedMPH,PrecipitationIn,Events,Conditions,WindDirDegrees,DateUTC
12:56 AM,71.1,61.0,70,29.83,-9999.0,South,16.1,-,N/A,,Unknown,190,2013-08-31 06:56:00
1:56 AM,70.0,61.0,73,29.81,-9999.0,South,15.0,-,N/A,,Unknown,190,2013-08-31 07:56:00
2:56 AM,70.0,61.0,73,29.80,-9999.0,South,13.8,-,N/A,,Unknown,190,2013-08-31 08:56:00
3:56 AM,71.1,60.1,68,29.79,-9999.0,SW,12.7,-,N/A,,Unknown,220,2013-08-31 09:56:00
4:56 AM,70.0,59.0,68,29.78,-9999.0,Calm,Calm,-,N/A,,Unknown,0,2013-08-31 10:56:00
5:56 AM,69.1,59.0,70,29.81,-9999.0,WNW,8.1,-,N/A,,Unknown,290,2013-08-31 11:56:00
6:56 AM,68.0,60.1,76,29.82,-9999.0,East,6.9,-,N/A,,Unknown,100,2013-08-31 12:56:00
7:56 AM,70.0,61.0,73,29.86,-9999.0,West,11.5,-,N/A,,Unknown,260,2013-08-31 13:56:00
8:56 AM,73.0,61.0,66,29.86,-9999.0,NW,13.8,-,N/A,,Unknown,310,2013-08-31 14:56:00
9:56 AM,75.9,57.9,54,29.86,-9999.0,North,16.1,21.9,N/A,,Unknown,350,2013-08-31 15:56:00
10:56 AM,79.0,53.1,40,29.88,-9999.0,North,23.0,28.8,N/A,,Unknown,360,2013-08-31 16:56:00
11:56 AM,82.0,50.0,33,29.89,-9999.0,North,24.2,32.2,N/A,,Unknown,350,2013-08-31 17:56:00
12:56 PM,87.1,46.9,25,29.88,-9999.0,North,20.7,27.6,N/A,,Unknown,350,2013-08-31 18:56:00
1:56 PM,88.0,44.1,22,29.89,-9999.0,North,27.6,32.2,N/A,,Unknown,350,2013-08-31 19:56:00
2:56 PM,87.1,41.0,20,29.90,-9999.0,NNW,20.7,31.1,N/A,,Unknown,340,2013-08-31 20:56:00
3:56 PM,86.0,39.0,19,29.91,-9999.0,NNW,19.6,32.2,N/A,,Unknown,340,2013-08-31 21:56:00
4:56 PM,84.0,37.9,19,29.91,-9999.0,North,18.4,29.9,N/A,,Unknown,350,2013-08-31 22:56:00
5:56 PM,81.0,37.0,21,29.93,-9999.0,North,17.3,-,N/A,,Unknown,350,2013-08-31 23:56:00
6:56 PM,78.1,37.9,24,29.95,-9999.0,North,13.8,-,N/A,,Unknown,350,2013-09-01 00:56:00
7:56 PM,68.0,41.0,37,29.98,-9999.0,North,8.1,-,N/A,,Unknown,350,2013-09-01 01:56:00
8:56 PM,64.9,42.1,43,30.00,-9999.0,NNW,8.1,-,N/A,,Unknown,330,2013-09-01 02:56:00
9:56 PM,61.0,43.0,52,30.01,-9999.0,WNW,9.2,-,N/A,,Unknown,300,2013-09-01 03:56:00
10:56 PM,60.1,43.0,53,30.01,-9999.0,WNW,8.1,-,N/A,,Unknown,300,2013-09-01 04:56:00
11:56 PM,57.9,42.1,56,30.01,-9999.0,WNW,8.1,-,N/A,,Unknown,300,2013-09-01 05:56:00